Location: Riverton
(43.0250°N, 108.3790°W)
Time: 23:08:38
(UTC-07:00)

Amateur Radio Satellites - All Passes

Search period start: 19 November 2017 22:38
Search period end: 20 November 2017 22:38
Location: Riverton, 43.0250°N, 108.3790°W

Satellite Date Start Highest point End Downlink Frequencies (MHz)
Time Altitude Azimuth
VELOX 1 19 Nov 22:40:59 22:42:36 12° 60° (ENE) 22:44:14 145.980
SO-50 19 Nov 23:01:56 23:06:15 48° 309° (NW) 23:10:39 436.795
PRISM 19 Nov 23:03:29 23:07:40 72° 285° (WNW) 23:11:47 437.425
UNISAT 6 19 Nov 23:12:21 23:15:38 22° 294° (WNW) 23:18:53 437.425
DUCHIFAT 1 19 Nov 23:14:27 23:16:06 12° 90° (E) 23:17:44 145.980
TIGRISAT 19 Nov 23:17:10 23:20:24 21° 294° (WNW) 23:23:36 435.000
EO-79 19 Nov 23:18:46 23:21:41 18° 93° (E) 23:24:34 145.935-145.965
O/OREOS (USA 219) 19 Nov 23:22:17 23:26:50 64° 64° (ENE) 23:31:18 437.305
NANOSAT C BR1 19 Nov 23:23:06 23:25:57 18° 93° (E) 23:28:48 145.865
nSIGHT-1 19 Nov 23:32:52 23:35:28 22° 345° (NNW) 23:38:05 .
POLYITAN 1 19 Nov 23:33:10 23:36:42 25° 95° (E) 23:40:11 437.675
LO-87 19 Nov 23:35:33 23:38:05 18° 266° (W) 23:40:37 145.935 - 145.965
SPROUT 19 Nov 23:46:52 23:51:10 83° 76° (ENE) 23:55:28 437.525
ESTCUBE 1 19 Nov 23:48:01 23:51:43 25° 265° (W) 23:55:26 437.505/2401.250
RS-15 19 Nov 23:50:27 00:00:05 25° 359° (N) 00:09:26 29.354- 29.394
QB50P2 19 Nov 23:55:56 00:00:03 51° 100° (E) 00:04:08 145.880/145.840
NO-84 20 Nov 00:07:56 00:10:44 17° 235° (SW) 00:13:31 435.350 FM
AIST 2D 20 Nov 00:11:06 00:14:11 29° 289° (WNW) 00:17:17 435.315
ISS 20 Nov 00:12:30 00:14:58 19° 352° (N) 00:17:25 437.550
BUGSAT 1 20 Nov 00:12:51 00:14:36 12° 90° (E) 00:16:20 437.445
VELOX 1 20 Nov 00:13:58 00:18:23 79° 256° (WSW) 00:22:52 145.980
UKube-1 20 Nov 00:15:13 00:18:00 17° 63° (ENE) 00:20:48 .
50 SAT 20 Nov 00:15:37 00:18:09 21° 69° (ENE) 00:20:42 437.505
PCSat 20 Nov 00:25:15 00:30:28 51° 114° (ESE) 00:35:43 145.827
Oscar 19 20 Nov 00:25:50 00:27:34 12° 88° (E) 00:29:18 437.125/150
Gurwin Techsat 1B 20 Nov 00:39:27 00:41:07 11° 88° (E) 00:42:48 435.225
SO-50 20 Nov 00:47:09 00:47:50 10° 331° (NNW) 00:48:30 436.795
DUCHIFAT 1 20 Nov 00:48:01 00:52:07 59° 287° (WNW) 00:56:12 145.980
EO-79 20 Nov 00:53:41 00:57:36 39° 289° (WNW) 01:01:29 145.935-145.965
NANOSAT C BR1 20 Nov 00:57:54 01:01:49 40° 289° (WNW) 01:05:42 145.865
O/OREOS (USA 219) 20 Nov 01:03:33 01:05:38 13° 262° (W) 01:07:42 437.305
DX 1 20 Nov 01:04:05 01:08:27 85° 76° (ENE) 01:12:51 434.975-435.025
POLYITAN 1 20 Nov 01:08:50 01:12:25 28° 292° (WNW) 01:15:59 437.675
nSIGHT-1 20 Nov 01:10:13 01:12:30 18° 6° (N) 01:14:48 .
MOZHAYETS 4 20 Nov 01:12:07 01:14:07 13° 61° (ENE) 01:16:07
QB50P2 20 Nov 01:32:58 01:35:24 15° 297° (WNW) 01:37:50 145.880/145.840
BUGSAT 1 20 Nov 01:46:20 01:50:18 53° 287° (WNW) 01:54:11 437.445
50 SAT 20 Nov 01:47:47 01:50:11 19° 265° (W) 01:52:36 437.505
UKube-1 20 Nov 01:49:27 01:53:37 49° 260° (W) 01:57:51 .
ISS 20 Nov 01:49:41 01:52:16 21° 12° (NNE) 01:54:50 437.550
Oscar 19 20 Nov 02:02:21 02:07:32 86° 284° (WNW) 02:12:42 437.125/150
RS-15 20 Nov 02:06:09 02:17:13 39° 33° (NNE) 02:27:42 29.354- 29.394
PCSat 20 Nov 02:09:32 02:14:08 27° 313° (NW) 02:18:45 145.827
BEESAT 20 Nov 02:11:59 02:16:27 40° 69° (ENE) 02:20:54 436.000
Gurwin Techsat 1B 20 Nov 02:16:25 02:21:47 90° 293° (WNW) 02:27:06 435.225
ITUPSAT 1 20 Nov 02:20:34 02:25:10 48° 71° (ENE) 02:29:46 437.325
MOZHAYETS 4 20 Nov 02:46:05 02:50:39 75° 258° (WSW) 02:55:14
nSIGHT-1 20 Nov 02:46:18 02:49:22 40° 26° (NNE) 02:52:23 .
CUBESAT XI-V 20 Nov 02:54:33 02:58:35 31° 68° (ENE) 03:02:39 437.345
BEESAT 3 20 Nov 03:00:14 03:04:06 53° 119° (ESE) 03:08:01 437.485
M-CUBED/EXP-1 PRIME 20 Nov 03:08:35 03:13:07 77° 108° (ESE) 03:17:45 437.505
AO-7 20 Nov 03:08:43 03:16:27 40° 99° (E) 03:24:10 .
KKS-1 20 Nov 03:13:44 03:15:49 13° 60° (ENE) 03:17:54 437.445
ISS 20 Nov 03:25:55 03:29:11 69° 32° (NNE) 03:32:25 437.550
STARS 20 Nov 03:43:03 03:43:55 10° 59° (ENE) 03:44:47 437.465
Oscar 19 20 Nov 03:43:59 03:46:03 12° 303° (WNW) 03:48:07 437.125/150
BEESAT 20 Nov 03:50:36 03:54:21 23° 266° (W) 03:58:06 436.000
ITAMSAT 1 20 Nov 03:51:51 03:57:02 60° 101° (E) 04:02:10 435.822/435.867
Gurwin Techsat 1B 20 Nov 03:58:24 04:00:56 14° 303° (WNW) 04:03:29 435.225
ITUPSAT 1 20 Nov 03:59:50 04:03:14 19° 267° (W) 04:06:38 437.325
BEESAT 2 20 Nov 04:08:19 04:12:20 81° 121° (ESE) 04:16:24 435.950
RS-15 20 Nov 04:19:07 04:31:01 81° 240° (WSW) 04:42:13 29.354- 29.394
AO-85 20 Nov 04:19:16 04:22:52 38° 117° (ESE) 04:26:37 145.980
nSIGHT-1 20 Nov 04:22:42 04:25:30 28° 223° (SW) 04:28:16 .
CUBESAT XI-V 20 Nov 04:32:03 04:35:56 27° 265° (W) 04:39:51 437.345
BEESAT 3 20 Nov 04:39:02 04:41:56 19° 318° (NW) 04:44:50 437.485
M-CUBED/EXP-1 PRIME 20 Nov 04:44:34 04:46:56 14° 303° (WNW) 04:49:20 437.505
KKS-1 20 Nov 04:47:18 04:51:46 72° 257° (WSW) 04:56:16 437.445
DOVE 4 20 Nov 05:01:18 05:06:26 54° 99° (E) 05:11:18 437.250
AO-7 20 Nov 05:01:24 05:09:19 50° 298° (WNW) 05:17:15 .
ISS 20 Nov 05:03:18 05:05:18 15° 228° (SW) 05:07:18 437.550
YUBILEINY 20 Nov 05:11:25 05:19:35 46° 88° (E) 05:27:49 435.215
STARS 20 Nov 05:15:06 05:19:32 89° 265° (W) 05:24:00 437.465
XW-2F 20 Nov 05:16:28 05:17:46 11° 90° (E) 05:19:03 145.980 - 146.000
CUTE-I 20 Nov 05:16:38 05:19:18 14° 89° (E) 05:21:58 437.470
ITAMSAT 1 20 Nov 05:32:24 05:36:01 19° 299° (WNW) 05:39:37 435.822/435.867
KAITUO 1B 20 Nov 05:45:13 05:48:01 20° 94° (E) 05:50:49 145.475/437.950
BEESAT 2 20 Nov 05:48:18 05:50:35 14° 321° (NW) 05:52:53 435.950
SO-50 20 Nov 05:51:54 05:55:54 28° 45° (NE) 05:59:56 436.795
XW-2D 20 Nov 05:56:23 05:59:58 38° 98° (E) 06:03:32 145.860 - 145.880
AO-85 20 Nov 06:00:15 06:03:24 22° 317° (NW) 06:06:40 145.980
XW-2B 20 Nov 06:11:02 06:14:48 56° 100° (E) 06:18:32 145.730 - 145.750
CUTE 1.7 + AOD 2 20 Nov 06:15:11 06:17:44 15° 91° (E) 06:20:17 437.475
HO-68 20 Nov 06:20:32 06:26:23 26° 93° (E) 06:32:11 435.675
NUDT-PHONESAT 20 Nov 06:31:16 06:34:59 69° 102° (ESE) 06:38:40 437.300
FO-29 20 Nov 06:31:44 06:36:51 23° 56° (ENE) 06:42:20 435.910
STRAND 1 20 Nov 06:33:39 06:38:45 63° 73° (ENE) 06:43:51 437.568
RS-15 20 Nov 06:33:55 06:41:21 20° 263° (W) 06:48:37 29.354- 29.394
XW-2C 20 Nov 06:36:33 06:40:21 68° 284° (WNW) 06:44:08 145.795 - 145.815
LilacSat-2 20 Nov 06:37:03 06:40:51 62° 285° (WNW) 06:44:38 437.200
DOVE 4 20 Nov 06:39:50 06:43:37 21° 297° (WNW) 06:47:19 437.250
SEEDS 20 Nov 06:47:27 06:50:42 21° 93° (E) 06:53:56 437.485
XW-2F 20 Nov 06:48:28 06:52:09 51° 287° (WNW) 06:55:50 145.980 - 146.000
CUTE-I 20 Nov 06:54:34 06:59:57 78° 286° (WNW) 07:05:17 437.470
AO-7 20 Nov 06:57:02 07:00:07 13° 320° (NW) 07:03:12 .
CUBEBUG 2 20 Nov 06:58:22 07:01:51 25° 95° (E) 07:05:17 437.445
AAUSAT CUBESAT 2 20 Nov 06:59:09 07:00:48 12° 89° (E) 07:02:26 437.432
YUBILEINY 20 Nov 07:08:20 07:16:27 41° 288° (WNW) 07:24:41 435.215
KAITUO 1B 20 Nov 07:18:44 07:22:00 29° 290° (WNW) 07:25:17 145.475/437.950
PCSat 20 Nov 07:30:42 07:32:37 12° 32° (NNE) 07:34:31 145.827
XW-2D 20 Nov 07:31:26 07:33:50 16° 294° (WNW) 07:36:13 145.860 - 145.880
SO-50 20 Nov 07:32:07 07:36:30 42° 243° (WSW) 07:40:55 436.795
XW-2B 20 Nov 07:47:04 07:48:29 12° 297° (WNW) 07:49:55 145.730 - 145.750
CUTE 1.7 + AOD 2 20 Nov 07:49:42 07:53:49 48° 287° (WNW) 07:57:56 437.475
ZACube-1 20 Nov 07:50:22 07:53:56 28° 95° (E) 07:57:31 437.345
UWE-3 20 Nov 07:57:08 08:01:16 65° 101° (E) 08:05:23 435.000/436.395/437.385
HO-68 20 Nov 08:07:28 08:14:33 62° 291° (WNW) 08:21:35 435.675
XW-2A 20 Nov 08:11:04 08:14:25 80° 284° (WNW) 08:17:47 145.665 - 145.685
FO-29 20 Nov 08:14:25 08:20:58 77° 258° (WSW) 08:28:24 435.910
STRAND 1 20 Nov 08:15:10 08:18:21 16° 269° (W) 08:21:33 437.568
SEEDS 20 Nov 08:22:35 08:26:26 34° 290° (WNW) 08:30:18 437.485
AAUSAT CUBESAT 2 20 Nov 08:32:29 08:36:37 60° 285° (WNW) 08:40:44 437.432
UNISAT 6 20 Nov 08:34:26 08:38:36 36° 70° (ENE) 08:42:42 437.425
CUBEBUG 2 20 Nov 08:34:53 08:38:26 27° 292° (WNW) 08:41:56 437.445
CUTE-I 20 Nov 08:37:11 08:39:05 12° 304° (NW) 08:40:59 437.470
TIGRISAT 20 Nov 08:39:04 08:43:15 36° 70° (ENE) 08:47:22 435.000
AO-73 20 Nov 08:41:41 08:45:50 87° 280° (W) 08:50:00 145.935
Oscar 11 20 Nov 08:59:17 09:03:38 84° 281° (W) 09:07:58 .
Max Valier Satellite 20 Nov 08:59:46 09:01:17 12° 91° (E) 09:02:49 145.860
PCSat 20 Nov 09:12:03 09:17:20 51° 54° (NE) 09:22:36 145.827
DELFI C3 20 Nov 09:13:27 09:16:55 28° 96° (E) 09:20:21 145.870
ZACube-1 20 Nov 09:26:44 09:30:08 25° 292° (WNW) 09:33:31 437.345
UWE-3 20 Nov 09:35:35 09:37:11 12° 298° (WNW) 09:38:48 435.000/436.395/437.385
PRISM 20 Nov 09:52:57 09:57:03 89° 82° (E) 10:01:14 437.425
HO-68 20 Nov 09:57:44 10:00:52 13° 312° (NW) 10:04:00 435.675
FO-29 20 Nov 10:04:27 10:07:23 13° 278° (W) 10:10:26 435.910
DUCHIFAT 1 20 Nov 10:07:48 10:09:07 11° 61° (ENE) 10:10:25 145.980
UNISAT 6 20 Nov 10:11:41 10:15:21 23° 266° (W) 10:18:58 437.425
EO-79 20 Nov 10:12:19 10:15:00 17° 64° (ENE) 10:17:41 145.935-145.965
NANOSAT C BR1 20 Nov 10:16:20 10:18:56 16° 64° (ENE) 10:21:32 145.865
TIGRISAT 20 Nov 10:16:23 10:20:00 23° 266° (W) 10:23:34 435.000
POLYITAN 1 20 Nov 10:26:35 10:29:55 23° 67° (ENE) 10:33:15 437.675
Max Valier Satellite 20 Nov 10:31:50 10:35:20 44° 287° (WNW) 10:38:50 145.860
EO-88 20 Nov 10:32:24 10:36:02 64° 285° (WNW) 10:39:39 145.990 - 145.960
AIST 2D 20 Nov 10:45:13 10:48:40 76° 258° (WSW) 10:52:09 435.315
DELFI C3 20 Nov 10:48:19 10:51:32 24° 292° (WNW) 10:54:43 145.870
QB50P2 20 Nov 10:48:59 10:53:00 43° 72° (ENE) 10:57:02 145.880/145.840
BEESAT 2 20 Nov 10:49:39 10:50:26 10° 34° (NE) 10:51:14 435.950
PCSat 20 Nov 10:56:06 11:00:24 24° 252° (WSW) 11:04:41 145.827
LO-87 20 Nov 11:00:13 11:03:24 30° 97° (E) 11:06:31 145.935 - 145.965
BUGSAT 1 20 Nov 11:04:01 11:05:29 12° 61° (ENE) 11:06:57 437.445
AO-85 20 Nov 11:10:21 11:11:23 11° 32° (NNE) 11:12:26 145.980
FALCONSAT 3 20 Nov 11:15:28 11:18:21 21° 170° (S) 11:21:14 435.103
BEESAT 3 20 Nov 11:15:56 11:19:42 40° 51° (NE) 11:23:23 437.485
SPROUT 20 Nov 11:33:13 11:35:08 13° 90° (E) 11:37:02 437.525
ESTCUBE 1 20 Nov 11:38:18 11:42:49 62° 101° (ESE) 11:47:18 437.505/2401.250
DUCHIFAT 1 20 Nov 11:39:57 11:44:10 74° 258° (WSW) 11:48:23 145.980
Oscar 19 20 Nov 11:42:39 11:46:21 21° 62° (ENE) 11:50:04 437.125/150
EO-79 20 Nov 11:46:16 11:50:22 48° 261° (W) 11:54:30 145.935-145.965
NANOSAT C BR1 20 Nov 11:50:08 11:54:14 49° 260° (W) 11:58:22 145.865
Gurwin Techsat 1B 20 Nov 12:00:14 12:04:15 22° 62° (ENE) 12:08:16 435.225
POLYITAN 1 20 Nov 12:01:40 12:05:31 33° 263° (W) 12:09:22 437.675
VELOX 1 20 Nov 12:03:50 12:06:56 18° 92° (E) 12:10:00 145.980
AO-7 20 Nov 12:21:16 12:25:27 15° 43° (NE) 12:29:39 .
BEESAT 2 20 Nov 12:24:58 12:29:00 63° 54° (NE) 12:32:57 435.950
QB50P2 20 Nov 12:26:11 12:28:58 17° 268° (W) 12:31:48 145.880/145.840
LO-87 20 Nov 12:34:12 12:36:34 17° 293° (WNW) 12:38:54 145.935 - 145.965
BUGSAT 1 20 Nov 12:36:04 12:40:16 71° 257° (WSW) 12:44:27 437.445
AO-85 20 Nov 12:48:16 12:52:48 50° 52° (NE) 12:57:39 145.980
DX 1 20 Nov 12:52:53 12:55:04 14° 91° (E) 12:57:15 434.975-435.025
FALCONSAT 3 20 Nov 12:53:52 12:56:54 24° 185° (S) 12:59:55 435.103
BEESAT 3 20 Nov 12:54:09 12:56:55 19° 248° (WSW) 12:59:40 437.485
50 SAT 20 Nov 13:04:03 13:06:04 15° 94° (E) 13:08:05 437.505
SPROUT 20 Nov 13:07:12 13:11:23 57° 287° (WNW) 13:15:32 437.525
ESTCUBE 1 20 Nov 13:16:33 13:19:06 15° 298° (WNW) 13:21:38 437.505/2401.250
Oscar 19 20 Nov 13:20:16 13:25:15 54° 259° (W) 13:30:17 437.125/150
ITAMSAT 1 20 Nov 13:34:14 13:37:05 15° 58° (ENE) 13:39:56 435.822/435.867
O/OREOS (USA 219) 20 Nov 13:35:08 13:39:41 63° 109° (ESE) 13:44:15 437.305
UKube-1 20 Nov 13:35:41 13:39:13 24° 95° (E) 13:42:44 .
Gurwin Techsat 1B 20 Nov 13:38:38 13:43:49 52° 260° (W) 13:49:02 435.225
VELOX 1 20 Nov 13:39:20 13:43:34 44° 289° (WNW) 13:47:47 145.980
M-CUBED/EXP-1 PRIME 20 Nov 13:55:22 13:58:52 75° 252° (WSW) 14:02:42 437.505
BEESAT 2 20 Nov 14:04:27 14:06:11 12° 251° (WSW) 14:07:53 435.950
AO-7 20 Nov 14:08:28 14:16:31 60° 65° (ENE) 14:24:38 .
ITUPSAT 1 20 Nov 14:22:39 14:23:49 11° 89° (E) 14:24:58 437.325
DX 1 20 Nov 14:27:17 14:31:36 58° 287° (WNW) 14:35:54 434.975-435.025
AO-85 20 Nov 14:29:15 14:32:59 23° 247° (WSW) 14:36:54 145.980
FALCONSAT 3 20 Nov 14:33:28 14:35:20 13° 200° (SSW) 14:37:12 435.103
50 SAT 20 Nov 14:35:28 14:38:12 26° 290° (WNW) 14:40:55 437.505
MOZHAYETS 4 20 Nov 14:40:35 14:44:13 23° 94° (E) 14:47:51
ITAMSAT 1 20 Nov 15:10:37 15:15:51 82° 256° (WSW) 15:21:08 435.822/435.867
UKube-1 20 Nov 15:11:24 15:15:15 32° 292° (WNW) 15:19:05 .
O/OREOS (USA 219) 20 Nov 15:16:36 15:19:32 17° 308° (NW) 15:22:29 437.305
YUBILEINY 20 Nov 15:20:33 15:27:26 24° 63° (ENE) 15:34:16 435.215
NO-84 20 Nov 15:21:44 15:25:18 50° 134° (SE) 15:29:10 435.350 FM
BEESAT 20 Nov 15:48:14 15:53:02 84° 104° (ESE) 15:57:47 436.000
ITUPSAT 1 20 Nov 15:57:27 16:02:13 82° 285° (WNW) 16:06:58 437.325
AO-7 20 Nov 16:02:28 16:09:40 32° 264° (W) 16:16:55 .
DOVE 4 20 Nov 16:06:39 16:11:34 58° 73° (ENE) 16:16:43 437.250
MOZHAYETS 4 20 Nov 16:17:17 16:21:27 36° 291° (WNW) 16:25:37
CUBESAT XI-V 20 Nov 16:26:25 16:31:06 69° 101° (E) 16:35:47 437.345
KAITUO 1B 20 Nov 16:27:38 16:28:44 11° 63° (ENE) 16:29:50 145.475/437.950
KKS-1 20 Nov 16:38:00 16:41:18 20° 93° (E) 16:44:34 437.445
RS-15 20 Nov 16:38:09 16:43:28 14° 93° (E) 16:48:46 29.354- 29.394
CUTE-I 20 Nov 16:38:33 16:42:56 26° 64° (ENE) 16:47:20 437.470
XW-2D 20 Nov 16:38:46 16:41:38 21° 68° (ENE) 16:44:32 145.860 - 145.880
HO-68 20 Nov 16:51:03 16:56:26 23° 56° (NE) 17:01:49 435.675
XW-2B 20 Nov 16:53:05 16:56:22 29° 70° (ENE) 16:59:39 145.730 - 145.750
NO-84 20 Nov 16:59:24 17:02:50 30° 334° (NNW) 17:06:29 435.350 FM
STARS 20 Nov 17:04:45 17:07:19 15° 91° (E) 17:09:52 437.465
CUTE 1.7 + AOD 2 20 Nov 17:09:33 17:11:29 13° 62° (ENE) 17:13:24 437.475
NUDT-PHONESAT 20 Nov 17:10:58 17:14:15 33° 71° (ENE) 17:17:33 437.300
YUBILEINY 20 Nov 17:16:23 17:25:15 79° 265° (W) 17:34:03 435.215
XW-2C 20 Nov 17:18:10 17:21:51 62° 75° (ENE) 17:25:33 145.795 - 145.815
LilacSat-2 20 Nov 17:19:16 17:22:59 70° 76° (ENE) 17:26:45 437.200
BEESAT 20 Nov 17:28:10 17:30:06 12° 301° (WNW) 17:32:02 436.000
XW-2F 20 Nov 17:29:28 17:33:10 80° 77° (ENE) 17:36:54 145.980 - 146.000
ITUPSAT 1 20 Nov 17:38:25 17:39:14 10° 303° (WNW) 17:40:02 437.325
SEEDS 20 Nov 17:40:26 17:43:08 17° 65° (ENE) 17:45:49 437.485
DOVE 4 20 Nov 17:46:14 17:49:38 18° 271° (W) 17:53:08 437.250
CUBEBUG 2 20 Nov 17:56:55 18:00:43 26° 68° (ENE) 18:04:26 437.445
KAITUO 1B 20 Nov 17:58:36 18:02:13 55° 260° (W) 18:05:51 145.475/437.950
CUBESAT XI-V 20 Nov 18:05:24 18:07:55 15° 298° (WNW) 18:10:26 437.345
XW-2D 20 Nov 18:12:29 18:15:40 26° 264° (W) 18:18:52 145.860 - 145.880
KKS-1 20 Nov 18:13:48 18:18:00 40° 290° (WNW) 18:22:09 437.445
CUTE-I 20 Nov 18:17:37 18:22:43 44° 261° (W) 18:27:52 437.470
XW-2B 20 Nov 18:27:53 18:30:34 19° 267° (W) 18:33:17 145.730 - 145.750
HO-68 20 Nov 18:36:13 18:43:25 77° 255° (WSW) 18:50:40 435.675
NO-84 20 Nov 18:38:42 18:41:15 16° 355° (N) 18:43:53 435.350 FM
STARS 20 Nov 18:39:40 18:43:57 52° 288° (WNW) 18:48:11 437.465
RS-15 20 Nov 18:41:20 18:53:21 64° 115° (ESE) 19:05:21 29.354- 29.394
CUTE 1.7 + AOD 2 20 Nov 18:42:38 18:46:47 62° 260° (W) 18:50:58 437.475
XW-2A 20 Nov 18:42:46 18:45:47 33° 72° (ENE) 18:48:49 145.665 - 145.685
STRAND 1 20 Nov 18:44:06 18:47:49 20° 92° (E) 18:51:29 437.568
NUDT-PHONESAT 20 Nov 18:45:53 18:48:12 16° 267° (W) 18:50:31 437.300
ZACube-1 20 Nov 18:46:57 18:50:30 25° 68° (ENE) 18:54:00 437.345
UWE-3 20 Nov 18:54:22 18:58:45 58° 74° (ENE) 19:03:01 435.000/436.395/437.385
SEEDS 20 Nov 19:14:28 19:18:27 44° 262° (W) 19:22:29 437.485
YUBILEINY 20 Nov 19:15:50 19:20:29 16° 286° (WNW) 19:25:08 435.215
AAUSAT CUBESAT 2 20 Nov 19:22:45 19:26:52 85° 257° (WSW) 19:31:02 437.432
FO-29 20 Nov 19:24:17 19:29:37 19° 86° (E) 19:34:45 435.910
CUBEBUG 2 20 Nov 19:33:04 19:37:12 32° 264° (W) 19:41:15 437.445
AO-73 20 Nov 19:37:27 19:41:45 79° 75° (ENE) 19:46:00 145.935
Oscar 11 20 Nov 19:54:28 19:58:45 81° 77° (ENE) 20:03:04 .
DELFI C3 20 Nov 19:59:53 20:02:40 19° 66° (ENE) 20:05:29 145.870
ISS 20 Nov 20:08:16 20:09:34 12° 131° (SE) 20:10:54 437.550
NO-84 20 Nov 20:16:44 20:19:53 20° 16° (NNE) 20:23:06 435.350 FM
XW-2A 20 Nov 20:17:05 20:18:37 13° 268° (W) 20:20:10 145.665 - 145.685
STRAND 1 20 Nov 20:22:19 20:27:17 51° 289° (WNW) 20:32:12 437.568
ZACube-1 20 Nov 20:22:53 20:26:41 29° 264° (W) 20:30:25 437.345
HO-68 20 Nov 20:29:05 20:32:15 13° 273° (W) 20:35:26 435.675
UWE-3 20 Nov 20:33:15 20:35:31 14° 269° (W) 20:37:45 435.000/436.395/437.385
RS-15 20 Nov 20:54:38 21:06:26 48° 319° (NW) 21:18:08 29.354- 29.394
nSIGHT-1 20 Nov 21:00:00 21:03:05 46° 141° (SE) 21:06:11 .
FO-29 20 Nov 21:07:38 21:15:34 88° 285° (WNW) 21:23:02 435.910
EO-88 20 Nov 21:10:17 21:13:49 56° 75° (ENE) 21:17:24 145.990 - 145.960
Max Valier Satellite 20 Nov 21:10:45 21:14:23 85° 77° (ENE) 21:18:03 145.860
DELFI C3 20 Nov 21:33:30 21:37:09 35° 263° (W) 21:40:50 145.870
PRISM 20 Nov 21:35:25 21:36:43 11° 90° (E) 21:38:01 437.425
LO-87 20 Nov 21:37:41 21:39:52 16° 66° (ENE) 21:42:04 145.935 - 145.965
ISS 20 Nov 21:42:19 21:45:36 87° 328° (NNW) 21:48:53 437.550
SO-50 20 Nov 21:46:48 21:51:06 48° 119° (ESE) 21:55:27 436.795
NO-84 20 Nov 21:53:44 21:57:57 60° 35° (NE) 22:02:10 435.350 FM
UNISAT 6 20 Nov 22:01:11 22:05:29 68° 102° (ESE) 22:09:42 437.425
TIGRISAT 20 Nov 22:05:40 22:09:57 70° 102° (ESE) 22:14:10 435.000
O/OREOS (USA 219) 20 Nov 22:06:00 22:09:04 17° 52° (NE) 22:12:04 437.305
SPROUT 20 Nov 22:27:54 22:29:38 12° 61° (ENE) 22:31:23 437.525
